Showing default

NUSAT-52, 66692

Orbit data source: Space-Track

NUSAT-52, 66692 is a payload satellite owned by URUGUS S.A. (AR) in SSO that was launched on Fri, 28 Nov 2025 UTC via an FALCON 9 launch vehicle from the Air Force Western Test Range (AFWTR). Payload-class satellites include a variety of spacecraft equipped with specific instruments for various scientific and technological missions. These include communications satellites like Starlink; space stations such as the ISS; scientific satellites like the Hubble; Earth observation satellites from companies like Planet Labs, Umbra, and HawkEye 360; GPS; miniature CubeSats for education and research; and military/defense satellites.

Loading next visibility...
Identifier
66692, 2025-276AC
Orbit
SSO
Country
Flag of UnknownUnknown / ARGN
Related business
Manufacturer
URUGUS S.A.
Mission
Operational Commercial Imaging
Bus & Motor
NEWSAT V, Unknown motor
Mass
41.5 kg wet, 38.5 kg dry
Launch date (UTC)
2025-11-28 (2 months ago)
Launch vehicle
FALCON 9
Launch site
Air Force Western Test Range (AFWTR)
Object type
Payload
Rocket body
Debris
Shape & HBR
Box, 0.1 m
Radar Cross Section
0.080 m²

Expand to show TLE details & history
Last TLE update: 18 hours ago

TLE from 18 hours ago
0 NUSAT-52
1 66692U 25276AC  26034.48471718  .00007666  00000-0  37894-3 0  9995
2 66692  97.4351 110.3363 0004402 113.2831 246.8867 15.18109068 10120
Epoch: 2026-02-03T11:37Z
TLE epoch observation values (Epoch: 2026-02-03T11:37:59.564Z)
Latitude
0.00001°
Longitude
162.17313°
Altitude
515.835 km
Speed
7.605 km/s
True Right ascension
07h 21m 20s
True Declination
0° 00' 00"
Sunlit
Object was in full shadow at epoch
Visualization orbit readout
Latitude
Unknown
Longitude
Unknown
Altitude
Unknown
Speed
Unknown
Apparent Right ascension
Unknown
Apparent Declination
Unknown
Sunlit
N/A
Visualization observer readout
Local Sidereal Time
07:46:15
Azimuth
Unknown
Elevation
Unknown
Doppler factor
Unknown
Orbital elements
Apogee altitude
511.557 km
Perigee altitude
505.494 km
Semi-major axis
6,886.662 km
Eccentricity
0.00044
Inclination
97.4351°
RAAN
110.3363°
Arg. of periapsis
113.2831°
True anomaly
246.84032°
Mean anomaly
246.8867°
Eccentric anomaly
246.86351°
Mean motion
3.79778 °/min
Orbital period
94.79 mins
BSTAR
0.00037894
Loading maneuver chart data...
Computing Atmospheric mass density...
Loading historical data...
Loading historical data...
Loading historical data...
Loading historical data...
Loading historical data...
Loading historical data...
Loading historical data...

Documentation

Showing up to 5 results
|